This demonstration page uses our WeatherBlox Daily Observations layout. Learn more.

Left ArrowRight Arrow

39.12711, -84.51439

Hourly Observations for August 20, 2018

Temp ( °F °C ) Dew Point ( °F °C ) Humidity (%) Winds ( mph kmh ) Pressure ( in mb ) Visibility ( mi km ) Precip ( " mm )
12:53 am 00:53 Clear with Mist and Fog 68 20 68 20 100 100 N N/A 29.98 1015 6 10 N/A
1:53 am 01:53 Clear 68 20 67 19.4 96 96 N N/A 29.97 1015 7 11 N/A
2:53 am 02:53 Clear with Mist and Fog 66 18.9 66 18.9 100 100 WSW 3 6 29.97 1015 5 8 N/A
3:53 am 03:53 Clear with Light Rain 66 18.9 66 18.9 100 100 N N/A 29.96 1015 6 10 N/A
4:53 am 04:53 Clear with Mist and Fog 66 18.9 66 18.9 100 100 N N/A 29.95 1014 5 8 0.01 0.25
5:53 am 05:53 Clear with Mist and Fog 66 18.9 66 18.9 100 100 N N/A 29.96 1014 6 10 N/A
6:53 am 06:53 Clear with Mist and Fog 66 18.9 66 18.9 100 100 N N/A 29.96 1015 3 5 N/A
7:53 am 07:53 Mostly Cloudy with Mist and Fog 68 20 67 19.4 96 96 N N/A 29.97 1015 5 8 N/A
8:53 am 08:53 Mostly Cloudy with Mist and Fog 71 21.7 69 20.6 94 94 N N/A 29.98 1015 6 10 N/A
9:53 am 09:53 Mostly Cloudy 74 23.3 71 21.7 91 91 NNE 3 6 29.98 1015 7 11 N/A
10:53 am 10:53 Mostly Sunny 80 26.7 74 23.3 82 82 VRB 3 6 29.96 1014 8 13 N/A
11:29 am 11:29 Mostly Sunny 81 27.2 74 23.3 79 79 S 7 11 29.94 1014 10 16 N/A
11:53 am 11:53 Mostly Sunny 80 26.7 74 23.3 82 82 SSE 8 13 29.95 1014 10 16 N/A
12:53 pm 12:53 Partly Cloudy 83 28.3 75 23.9 77 77 ESE 10 17 29.93 1014 10 16 N/A
1:53 pm 13:53 Mostly Cloudy 83 28.3 74 23.3 74 74 SSE 9 15 29.91 1013 10 16 N/A
2:53 pm 14:53 Mostly Cloudy with Light Rain 82 27.8 74 23.3 77 77 S 5 7 29.89 1012 9 14 N/A
3:12 pm 15:12 Mostly Cloudy with Thunderstorms 80 26.7 76 24.4 87 87 SSW 17 28 29.91 1013 4 6 0.03 0.76
3:20 pm 15:20 Mostly Cloudy with Strong Thunderstorms 74 23.3 71 21.7 91 91 SW 16 26 29.91 1013 2 3 0.13 3.30
3:32 pm 15:32 Cloudy with Thunderstorms 73 22.8 71 21.7 94 94 SSE 5 7 29.91 1013 3 5 0.19 4.83
3:53 pm 15:53 Mostly Cloudy with Light Rain 76 24.4 74 23.3 94 94 S 9 15 29.90 1013 6 10 0.22 5.59
4:53 pm 16:53 Mostly Sunny 80 26.7 73 22.8 79 79 SSW 10 17 29.87 1012 10 16 0.01 0.25
5:53 pm 17:53 Mostly Sunny 81 27.2 75 23.9 82 82 N N/A 29.86 1011 10 16 N/A
6:53 pm 18:53 Partly Cloudy 81 27.2 76 24.4 85 85 SSE 6 9 29.86 1011 10 16 N/A
7:44 pm 19:44 Mostly Cloudy with Thunderstorms 76 24.4 71 21.7 85 85 N 10 17 29.88 1012 10 16 N/A
7:53 pm 19:53 Mostly Cloudy with Thunderstorms 75 23.9 71 21.7 88 88 N 9 15 29.88 1012 10 16 N/A
8:10 pm 20:10 Mostly Cloudy 74 23.3 71 21.7 91 91 ENE 6 9 29.91 1013 10 16 N/A
8:53 pm 20:53 Mostly Cloudy 74 23.3 71 21.7 91 91 NNE 5 7 29.89 1012 10 16 N/A
9:53 pm 21:53 Mostly Cloudy 74 23.3 71 21.7 91 91 N 3 6 29.88 1012 10 16 N/A
10:53 pm 22:53 Mostly Cloudy 73 22.8 72 22.2 96 96 ENE 3 6 29.87 1012 10 16 N/A
11:53 pm 23:53 Clear 72 22.2 72 22.2 100 100 N N/A 29.86 1011 9 14 N/A

Powered by AerisWeather